Location: ????????
(48.4751°N, 37.6926°E)
Time: 02:26:12
(UTC+00:00)

TIMED - Pass Details

Date: 20 January 2021
Orbit: 602 x 604 km, 74.1° (Epoch: 24 February)

Event Time Altitude Azimuth Distance (km) Brightness Sun altitude
Rises 14:43:12 0° 338° (NNW) 2,871 8.0 -5.9°
Reaches altitude 10° 14:45:27 10° 339° (NNW) 1,963 7.1 -6.2°
Maximum altitude 14:49:50 78° 66° (ENE) 625 4.5 -6.9°
Drops below altitude 10° 14:54:12 10° 154° (SSE) 1,948 7.1 -7.5°
Sets 14:56:25 0° 155° (SSE) 2,846 7.9 -7.9°
